User: anonymous   Login
Location: Unspecified
(50.1700°N, 6.8600°E)
Time: 21:39:19
(UTC+00:00)
Language:

Iridium 2 - Orbit

View from above orbital plane
View from above orbital plane
View from above satellite
View from above satellite

Ground track
Ground track

The orbit data is extracted from the following two-line orbital elements,

1 25527U 98066A   19288.39113339  .00000848  00000-0  39548-4 0  9993
2 25527  85.5290 249.6325 0008175 185.4632 174.6521 15.18210529146802
Epoch (UTC): 15 October 2019 09:23:13
Eccentricity: 0.0008175
inclination: 85.5290°
perigee height: 505 km
apogee height: 517 km
right ascension of ascending node: 249.6325°
argument of perigee: 185.4632°
revolutions per day: 15.18210529
mean anomaly at epoch: 174.6521°
orbit number at epoch: 14680

The dashed part of the orbit path shows where the satellite is in the earth's shadow,  

DLR